Weather History for Beauvechain, Belgium

Change the Weather History Date:

Friday, July 26, 2013

  Actual Average Record
Temperature  
Mean Temperature 74 °F -  
Max Temperature 83 °F 69 °F 83 °F (2012)
Min Temperature 66 °F 57 °F 51 °F (1998)
Cooling Degree Days 10    
Growing Degree Days 24 (Base 50)    
Moisture  
Dew Point 65 °F    
Average Humidity 72    
Maximum Humidity 94    
Minimum Humidity 44    
Precipitation  
Precipitation 0.00 in - - ()
Sea Level Pressure  
Sea Level Pressure 29.92 in    
Wind  
Wind Speed 4 mph ()    
Max Wind Speed 13 mph    
Max Gust Speed -    
Visibility 6.4 miles    
Events      
Averages and records for this station are not official NWS values.
T = Trace of Precipitation, MM = Missing Value Source: Averaged Metar Reports

Daily Weather History Graph

Daily Weather History Graph

Search for Another Location

Airport:

Trip Planner

Search our weather history database for the weather conditions in past years. The results will help you decide how hot, cold, wet, or windy it might be!

Date:

Astronomy

Jul. 26, 2013 Rise Set
Actual Time 5:59 AM CEST 9:34 PM CEST
Civil Twilight 5:18 AM CEST 10:15 PM CEST
Nautical Twilight 4:22 AM CEST 11:10 PM CEST
Astronomical Twilight 3:00 AM CEST 12:30 AM CEST
Moon 11:01 PM CEST (7/26) 10:53 AM CEST (7/26)
Length of Visible Light 16h 57m
Length of Day
15h 35m
Waning Gibbous, 82% of the Moon is Illuminated
Jul 26
Waning Gibbous
Jul 29
Last Quarter
Aug 6
New
Aug 14
First Quarter
Aug 21
Full

Hourly Weather History & Observations

Time (CEST) Temp. Heat Index Dew Point Humidity Pressure Visibility Wind Dir Wind Speed Gust Speed Precip Events Conditions
12:25 AM 73.4 °F - 64.4 °F 73% 29.98 in 6.2 mi Variable 3.5 mph - N/A   Clear
1:25 AM 69.8 °F - 62.6 °F 78% 29.98 in 6.2 mi Variable 1.2 mph - N/A   Mostly Cloudy
2:00 AM 70 °F - 63 °F 72% 29.97 in 25 mi 2.2 mph - -   Scattered Clouds
2:25 AM 69.8 °F - 62.6 °F 78% 29.98 in 6.2 mi Calm Calm - N/A   Mostly Cloudy
3:25 AM 69.8 °F - 64.4 °F 83% 29.95 in 6.2 mi Variable 1.2 mph - N/A   Mostly Cloudy
4:25 AM 68.0 °F - 66.2 °F 94% 29.95 in 6.2 mi Variable 2.3 mph - N/A   Mostly Cloudy
5:00 AM 67 °F - 64 °F 88% 29.93 in 13 mi 2.2 mph - -   Scattered Clouds
5:25 AM 66.2 °F - 64.4 °F 94% 29.92 in 6.2 mi Variable 1.2 mph - N/A   Mostly Cloudy
6:25 AM 68.0 °F - 62.6 °F 83% 29.92 in 6.2 mi Variable 3.5 mph - N/A   Mostly Cloudy
7:25 AM 68.0 °F - 62.6 °F 83% 29.92 in 6.2 mi SE 4.6 mph - N/A   Mostly Cloudy
8:00 AM 70 °F - 64 °F 75% 29.90 in 22 mi SE 6.7 mph - -   Scattered Clouds
8:25 AM 71.6 °F - 64.4 °F 78% 29.89 in 6.2 mi SSE 8.1 mph - N/A   Scattered Clouds
9:25 AM 71.6 °F - 66.2 °F 83% 29.92 in 6.2 mi SSE 5.8 mph - N/A   Mostly Cloudy
10:25 AM 71.6 °F - 66.2 °F 83% 29.95 in 6.2 mi SW 8.1 mph - N/A   Mostly Cloudy
11:00 AM 72 °F - 65 °F 72% 29.95 in 25 mi SW 11.2 mph - -   Mostly Cloudy
11:21 AM 71.6 °F - 64.4 °F 78% 29.95 in 6.2 mi SW 12.7 mph - N/A   Mostly Cloudy
11:25 AM 71.6 °F - 64.4 °F 78% 29.95 in 6.2 mi SW 12.7 mph - N/A   Mostly Cloudy
12:25 PM 69.8 °F - 66.2 °F 88% 29.92 in 6.2 mi WSW 4.6 mph - N/A   Mostly Cloudy
12:42 PM 71.6 °F - 66.2 °F 83% 29.92 in 6.2 mi SSW 4.6 mph - N/A   Mostly Cloudy
1:25 PM 75.2 °F - 66.2 °F 73% 29.92 in 6.2 mi ENE 4.6 mph - N/A   Scattered Clouds
2:00 PM 77 °F - 64 °F 56% 29.91 in 25 mi South 6.7 mph - -   Partly Cloudy
2:25 PM 78.8 °F - 64.4 °F 61% 29.92 in 6.2 mi South 8.1 mph - N/A   Scattered Clouds
3:25 PM 80.6 °F 82.7 °F 66.2 °F 61% 29.92 in 6.2 mi SSW 9.2 mph - N/A   Partly Cloudy
4:25 PM 82.4 °F 83.9 °F 64.4 °F 54% 29.92 in 6.2 mi SSW 10.4 mph - N/A   Partly Cloudy
4:46 PM 82.4 °F 83.9 °F 64.4 °F 54% 29.89 in 6.2 mi SSW 9.2 mph - N/A   Partly Cloudy
5:00 PM 83 °F - 64 °F 44% 29.89 in 22 mi SSW 8.9 mph - -   Scattered Clouds
5:25 PM 82.4 °F 83.9 °F 64.4 °F 54% 29.89 in 6.2 mi SSW 9.2 mph - N/A   Scattered Clouds
6:25 PM 82.4 °F 83.9 °F 64.4 °F 54% 29.89 in 6.2 mi South 9.2 mph - N/A   Partly Cloudy
7:25 PM 78.8 °F - 64.4 °F 61% 29.89 in 6.2 mi WSW 4.6 mph - N/A   Mostly Cloudy
8:00 PM 79 °F - 67 °F 59% 29.89 in 28 mi 4.5 mph - -   Scattered Clouds
8:25 PM 77.0 °F - 66.2 °F 69% 29.89 in 6.2 mi Variable 2.3 mph - N/A   Mostly Cloudy
9:25 PM 75.2 °F - 64.4 °F 69% 29.89 in 6.2 mi Variable 2.3 mph - N/A   Partly Cloudy
10:25 PM 73.4 °F - 64.4 °F 73% 29.89 in 6.2 mi Variable 1.2 mph - N/A   Partly Cloudy
11:00 PM 75 °F - 63 °F 59% 29.89 in 28 mi Calm Calm - -   Clear
11:25 PM 75.2 °F - 62.6 °F 65% 29.89 in 6.2 mi Variable 1.2 mph - N/A   Partly Cloudy